IRIDIUM 116 (43072 NORAD) Tracking and Keplerian Element Data

This shows tracking and keplerian element data for the satellite.

Feedback or suggestion? Click here.




ElementValue
Catalog43072
NameIRIDIUM 116
Epoch Orbit19583
Epoch Day261.58359924
Epoch Year2021
RAAN326.0999
Inclination86.3986
Eccentricity0.0002504
Argument of Perigee91.2719
Mean Anonmoly268.8764
Mean Motion14.34215996
Decay Rate3.9E-07
L11 43072U 17083C 21261.58359924 .00000039 00000-0 67158-5 0 9996
L22 43072 86.3986 326.0999 0002504 91.2719 268.8764 14.34215996195837

Live tracking and technical data element details for IRIDIUM 116 (NORAD 43072). IRIDIUM 116 can be tracked NOW for your location showing map with azimuth and elevation plus other details from your city location.

Track the satellite on the map from your city or location and see movement details for azimuth, elevation, latitude, longitude, range, height, and movement on the map or in text.







IsCatalogInMostPopularTable: catalog: 43072, numindb: 636
Update: records affected: 1



GetName: 43072 IRIDIUM 116

Hit Count: updated at: Sun, 26 Sep 2021 00:28:30 GMT